Printer-friendly version
Follow the MPC on Twitter Follow the MPC on Facebook The MPC blog
Minor Planet Center

MPEC 2010-D85 : 2010 DM56

The following Minor Planet Electronic Circular may be linked-to from your own Web pages, but must not otherwise be redistributed electronically.

A form allowing access to any MPEC is at the bottom of this page.


Read MPEC 2010-D84 Read MPEC 2010-D86


M.P.E.C. 2010-D85                                Issued 2010 Feb. 26, 21:59 UT

     The Minor Planet Electronic Circulars contain information on unusual
         minor planets and routine data on comets.  They are published
   on behalf of Commission 20 of the International Astronomical Union by the
          Minor Planet Center, Smithsonian Astrophysical Observatory,
                          Cambridge, MA 02138, U.S.A.

             Prepared using the Tamkin Foundation Computer Network

                              MPC@CFA.HARVARD.EDU
          URL http://www.cfa.harvard.edu/iau/mpc.html  ISSN 1523-6714

                                   2010 DM56

Observations:
     K10D56M* S2010 02 19.26983 03 25 52.82 +59 50 25.4                 ED085C51
     K10D56M  s2010 02 19.26983 1 + 2647.3464 + 2586.0776 + 5825.5640   ED085C51
     K10D56M  S2010 02 19.46835 03 27 50.17 +59 46 26.9                 ED085C51
     K10D56M  s2010 02 19.46835 1 + 2629.6675 + 2579.5780 + 5836.7467   ED085C51
     K10D56M  S2010 02 19.60066 03 29 08.04 +59 43 44.1                 ED085C51
     K10D56M  s2010 02 19.60066 1 + 2630.1735 + 2596.8569 + 5828.8789   ED085C51
     K10D56M  S2010 02 19.66674 03 29 46.80 +59 42 21.5                 ED085C51
     K10D56M  s2010 02 19.66674 1 + 2647.2650 + 2636.3808 + 5803.2735   ED085C51
     K10D56M  S2010 02 19.73296 03 30 25.71 +59 40 58.9                 ED085C51
     K10D56M  s2010 02 19.73296 1 + 2630.0265 + 2613.0046 + 5821.5750   ED085C51
     K10D56M  S2010 02 19.79905 03 31 04.43 +59 39 34.2                 ED085C51
     K10D56M  s2010 02 19.79905 1 + 2646.4312 + 2651.8911 + 5796.5423   ED085C51
     K10D56M  S2010 02 19.79918 03 31 04.65 +59 39 34.5                 ED085C51
     K10D56M  s2010 02 19.79918 1 + 2612.4416 + 2589.1503 + 5840.0675   ED085C51
     K10D56M  S2010 02 19.86526 03 31 43.17 +59 38 10.7                 ED085C51
     K10D56M  s2010 02 19.86526 1 + 2629.1567 + 2628.5652 + 5815.0360   ED085C51
     K10D56M  S2010 02 19.93148 03 32 21.99 +59 36 44.9                 ED085C51
     K10D56M  s2010 02 19.93148 1 + 2611.9803 + 2605.2050 + 5833.3181   ED085C51
     K10D56M  S2010 02 20.06378 03 33 39.07 +59 33 53.9                 ED085C51
     K10D56M  s2010 02 20.06378 1 + 2611.5265 + 2622.2246 + 5825.6914   ED085C51
     K10D56M  S2010 02 20.12987 03 34 17.43 +59 32 27.0                 ED085C51
     K10D56M  s2010 02 20.12987 1 + 2628.3082 + 2661.8845 + 5800.0989   ED085C51
     K10D56M  S2010 02 20.19609 03 34 56.00 +59 31 00.1                 ED085C51
     K10D56M  s2010 02 20.19609 1 + 2611.4286 + 2638.4788 + 5818.3861   ED085C51
     K10D56M  S2010 02 20.26218 03 35 34.24 +59 29 32.5                 ED085C51
     K10D56M  s2010 02 20.26218 1 + 2627.9670 + 2677.9013 + 5792.9781   ED085C51
     K10D56M  S2010 02 20.32839 03 36 12.66 +59 28 03.6                 ED085C51
     K10D56M  s2010 02 20.32839 1 + 2610.9697 + 2654.3875 + 5811.5004   ED085C51
     K10D56M  S2010 02 20.39448 03 36 50.70 +59 26 35.4                 ED085C51
     K10D56M  s2010 02 20.39448 1 + 2627.1360 + 2694.0644 + 5786.0594   ED085C51
     K10D56M  S2010 02 20.52678 03 38 07.02 +59 23 35.7                 ED085C51
     K10D56M  s2010 02 20.52678 1 + 2626.8457 + 2711.4315 + 5778.3553   ED085C51
     K10D56M  S2010 02 20.59300 03 38 45.19 +59 22 04.4                 ED085C51
     K10D56M  s2010 02 20.59300 1 + 2610.3272 + 2688.4610 + 5796.4236   ED085C51
     K10D56M  S2010 02 20.65909 03 39 23.08 +59 20 34.0                 ED085C51
     K10D56M  s2010 02 20.65909 1 + 2626.5374 + 2728.1800 + 5770.4070   ED085C51
     K10D56M  S2010 02 20.65922 03 39 23.35 +59 20 33.9                 ED085C51
     K10D56M  s2010 02 20.65922 1 + 2593.7042 + 2665.1805 + 5814.4391   ED085C51
     K10D56M  S2010 02 20.72530 03 40 01.13 +59 19 01.7                 ED085C51
     K10D56M  s2010 02 20.72530 1 + 2609.7919 + 2704.6810 + 5788.9361   ED085C51
     K10D56M  S2010 02 20.79152 03 40 39.11 +59 17 29.3                 ED085C51
     K10D56M  s2010 02 20.79152 1 + 2592.8527 + 2680.9981 + 5807.4751   ED085C51
     K10D56M  S2010 02 20.85761 03 41 16.83 +59 15 56.1                 ED085C51
     K10D56M  s2010 02 20.85761 1 + 2608.6515 + 2720.5152 + 5782.0650   ED085C51
     K10D56M  S2010 02 21.12222 03 43 47.40 +59 09 38.5                 ED085C51
     K10D56M  s2010 02 21.12222 1 + 2606.8977 + 2753.8717 + 5766.9300   ED085C51
     K10D56M  S2010 02 21.18843 03 44 25.05 +59 08 03.3                 ED085C51
     K10D56M  s2010 02 21.18843 1 + 2590.5084 + 2730.3460 + 5785.4551   ED085C51
     K10D56M  S2010 02 21.25452 03 45 02.29 +59 06 27.2                 ED085C51
     K10D56M  s2010 02 21.25452 1 + 2606.1665 + 2769.9157 + 5759.6636   ED085C51
     K10D56M  S2010 02 21.32074 03 45 39.81 +59 04 49.8                 ED085C51
     K10D56M  s2010 02 21.32074 1 + 2589.6479 + 2746.2448 + 5778.4615   ED085C51
     K10D56M  S2010 02 21.45304 03 46 54.39 +59 01 34.4                 ED085C51
     K10D56M  s2010 02 21.45304 1 + 2588.4859 + 2762.8915 + 5771.2820   ED085C51
     K10D56M  S2010 02 21.58535 03 48 08.73 +58 58 16.8                 ED085C51
     K10D56M  s2010 02 21.58535 1 + 2588.0535 + 2780.1943 + 5763.2328   ED085C51
     K10D56M  S2010 02 21.71765 03 49 22.74 +58 54 57.4                 ED085C51
     K10D56M  s2010 02 21.71765 1 + 2587.1163 + 2796.4477 + 5755.5835   ED085C51
     K10D56M  S2010 02 21.84995 03 50 36.53 +58 51 35.8                 ED085C51
     K10D56M  s2010 02 21.84995 1 + 2585.5116 + 2812.1606 + 5748.6628   ED085C51
     K10D56M  S2010 02 21.98226 03 51 50.07 +58 48 11.4                 ED085C51
     K10D56M  s2010 02 21.98226 1 + 2583.9336 + 2828.4933 + 5741.4792   ED085C51
     K10D56M  S2010 02 22.11456 03 53 03.38 +58 44 45.4                 ED085C51
     K10D56M  s2010 02 22.11456 1 + 2582.7892 + 2845.3926 + 5733.4225   ED085C51
     K10D56M  S2010 02 22.18078 03 53 40.03 +58 43 02.0                 ED085C51
     K10D56M  s2010 02 22.18078 1 + 2566.8678 + 2821.7181 + 5752.2025   ED085C51
     K10D56M KC2010 02 26.80725 04 33 26.12 +56 22 51.9                 ED085J95
     K10D56M KC2010 02 26.83213 04 33 37.92 +56 22 00.9                 ED085J95
     K10D56M KC2010 02 26.86307 04 33 52.54 +56 20 57.5          20.9 R ED085J95

Observer details:
J95 Great Shefford.  Observer P. Birtwhistle.  0.40-m f/6.0 Schmidt-Cassegrain
    + CCD.
C51 WISE.  Measurers A. Mainzer, E. Wright, J. Bauer, T. Grav, J. Dailey, J.
    Masiero, R. Cutri, R. McMillan, R. Walker.
    (http://wise.ssl.berkeley.edu/mission_sci.html)

Orbital elements:
2010 DM56                                           PHA, Earth MOID = 0.0068 AU
Epoch 2010 Jan. 4.0 TT = JDT 2455200.5                  MPC
M  22.47206              (2000.0)            P               Q
n   0.64541013     Peri.   49.73658     +0.76295944     -0.64128425
a   1.3261079      Node   349.25131     +0.37533659     +0.54213489
e   0.2985269      Incl.   25.92303     +0.52632247     +0.54299565
P   1.53           H   20.0           G   0.15           U   9
Residuals in seconds of arc
100219 C51  0.0   1.0-    100220 C51  0.0   0.1-    100221 C51  0.8-  0.2+
100219 C51  0.2+  0.5+    100220 C51  0.6+  0.5-    100221 C51  0.1-  0.2-
100219 C51  0.2-  0.7+    100220 C51  0.6-  0.0     100221 C51  0.0   0.2-
100219 C51  0.8-  0.2+    100220 C51  0.4-  0.1-    100221 C51  0.2+  0.2-
100219 C51  0.4-  0.8+    100220 C51  0.1+  0.5-    100221 C51  0.2-  0.1+
100219 C51  0.4-  0.5-    100220 C51  0.4-  0.1+    100221 C51  0.3-  0.3+
100219 C51  0.7+  0.2+    100220 C51  1.0+  0.4+    100221 C51  0.4-  0.1-
100219 C51  0.4-  0.4+    100220 C51  0.2+  0.2-    100222 C51  0.1-  0.0
100219 C51  0.6+  0.4-    100220 C51  0.6+  0.0     100222 C51  0.4+  0.6+
100220 C51  0.3+  0.1-    100220 C51  0.2+  0.4-    100226 J95  0.3-  0.2-
100220 C51  0.3-  0.6-    100221 C51  0.4-  0.6-    100226 J95  0.1+  0.1-
100220 C51  0.6+  0.1-    100221 C51  0.5+  0.1+    100226 J95  0.0   0.2+

Ephemeris:
2010 DM56                a,e,i = 1.33, 0.30, 26                  q = 0.9302
Date    TT    R. A. (2000) Decl.     Delta      r     Elong.  Phase     V
2010 02 23    04 01.11   +58 20.9    0.585    1.197    95.5    55.4    21.2
2010 03 05    05 18.01   +52 32.7    0.632    1.243    97.4    52.3    21.4
2010 03 15    06 12.74   +45 40.9    0.699    1.289    97.6    49.9    21.6
2010 03 25    06 53.26   +38 58.3    0.783    1.334    96.4    48.0    21.9
2010 04 04    07 25.30   +32 53.5    0.880    1.378    94.1    46.4    22.2
2010 04 14    07 52.25   +27 31.3    0.987    1.419    91.0    44.9    22.5
2010 04 24    08 16.09   +22 47.2    1.101    1.459    87.5    43.5    22.7
2010 05 04    08 37.92   +18 34.4    1.220    1.496    83.8    42.1    22.9
2010 05 14    08 58.43   +14 45.8    1.341    1.530    79.9    40.5    23.2

Timothy B. Spahr             (C) Copyright 2010 MPC           M.P.E.C. 2010-D85

Read MPEC 2010-D84 Read MPEC 2010-D86


MPEC number:

Enter an MPEC number in one of the following forms:

  • 1997-B01 (the full form)
  • J97B01 (the packed version of the full form)
  • B01 (the abbreviated form)

Valid HTML 4.01!